Location: Nairn
(57.5833°N, 3.8667°W)
Time: 21:38:24
(UTC+00:00)

Altair - Pass Details

Date: 11 October 2022
Orbit: 1501 x 1682 km, 47.2° (Epoch: 05 December)

Event Time Altitude Azimuth Distance (km) Brightness Sun altitude
Exits shadow 01:23:50 13° 125° (SE) 3,587 9.3 -36.9°
Drops below altitude 10° 01:27:17 10° 104° (ESE) 3,833 9.7 -36.7°
Sets 01:32:55 0° 79° (E) 4,865 10.6 -36.4°
